Time,TemperatureF,DewpointF,PressureIn,WindDirection,WindDirectionDegrees,WindSpeedMPH,WindSpeedGustMPH,Humidity,HourlyPrecipIn,Conditions,Clouds,dailyrainin,SoftwareType,DateUTC
2013-08-18 00:03:00,71.8,65.6,30.03,North,1,10.0,39.0,81,0.00,,,0.00,Weather View 32 v70,2013-08-18 10:03:00,
2013-08-18 00:08:00,71.8,65.6,30.04,North,352,12.0,36.0,81,0.00,,,0.00,Weather View 32 v70,2013-08-18 10:08:00,
2013-08-18 00:13:00,71.8,66.0,30.03,NNW,348,16.0,36.0,82,0.00,,,0.00,Weather View 32 v70,2013-08-18 10:13:00,
2013-08-18 00:18:00,71.7,66.2,30.03,NNE,23,7.0,36.0,83,0.00,,,0.00,Weather View 32 v70,2013-08-18 10:18:00,
2013-08-18 00:23:00,71.7,66.2,30.03,North,352,16.0,34.0,83,0.00,,,0.00,Weather View 32 v70,2013-08-18 10:23:00,
2013-08-18 00:28:00,71.7,66.2,30.03,NNE,25,17.0,34.0,83,0.00,,,0.00,Weather View 32 v70,2013-08-18 10:28:00,
2013-08-18 00:33:00,71.6,66.1,30.02,NNE,16,15.0,34.0,83,0.00,,,0.00,Weather View 32 v70,2013-08-18 10:33:00,
2013-08-18 00:38:00,71.7,66.2,30.00,NNW,331,21.0,34.0,83,0.00,,,0.00,Weather View 32 v70,2013-08-18 10:38:00,
2013-08-18 00:43:00,71.6,66.1,30.02,NNE,29,14.0,34.0,83,0.00,,,0.00,Weather View 32 v70,2013-08-18 10:43:00,
2013-08-18 00:48:00,71.6,66.1,30.01,NNW,330,21.0,34.0,83,0.00,,,0.00,Weather View 32 v70,2013-08-18 10:48:00,
2013-08-18 00:53:00,71.5,66.0,30.02,NNW,347,14.0,33.0,83,0.00,,,0.00,Weather View 32 v70,2013-08-18 10:53:00,
2013-08-18 00:58:00,71.5,66.0,30.02,North,5,11.0,33.0,83,0.00,,,0.00,Weather View 32 v70,2013-08-18 10:58:00,
2013-08-18 01:03:00,71.5,65.7,30.01,WNW,300,9.0,33.0,82,0.00,,,0.00,Weather View 32 v70,2013-08-18 11:03:00,
2013-08-18 01:08:00,71.5,65.7,30.01,North,349,16.0,33.0,82,0.00,,,0.00,Weather View 32 v70,2013-08-18 11:08:00,
2013-08-18 01:13:00,71.5,65.3,30.01,NW,326,13.0,33.0,81,0.00,,,0.00,Weather View 32 v70,2013-08-18 11:13:00,
2013-08-18 01:18:00,71.6,65.4,30.01,NNE,12,18.0,33.0,81,0.00,,,0.00,Weather View 32 v70,2013-08-18 11:18:00,
2013-08-18 01:23:00,71.5,65.3,30.01,North,352,9.0,33.0,81,0.00,,,0.00,Weather View 32 v70,2013-08-18 11:23:00,
2013-08-18 01:28:00,71.5,65.3,30.01,NNW,329,13.0,33.0,81,0.00,,,0.00,Weather View 32 v70,2013-08-18 11:28:00,
2013-08-18 01:33:00,71.5,65.3,30.00,NNW,332,14.0,33.0,81,0.00,,,0.00,Weather View 32 v70,2013-08-18 11:33:00,
2013-08-18 01:38:00,71.6,65.1,30.00,NW,312,13.0,33.0,80,0.00,,,0.00,Weather View 32 v70,2013-08-18 11:38:00,
2013-08-18 01:43:00,71.6,65.1,30.00,NNW,333,10.0,36.0,80,0.00,,,0.00,Weather View 32 v70,2013-08-18 11:43:00,
2013-08-18 01:48:00,71.6,65.1,30.01,NW,320,13.0,36.0,80,0.00,,,0.00,Weather View 32 v70,2013-08-18 11:48:00,
2013-08-18 01:53:00,71.6,65.1,30.00,NNW,330,16.0,36.0,80,0.00,,,0.00,Weather View 32 v70,2013-08-18 11:53:00,
2013-08-18 01:58:00,71.6,65.1,30.00,North,356,15.0,36.0,80,0.00,,,0.00,Weather View 32 v70,2013-08-18 11:58:00,
2013-08-18 02:03:00,71.5,65.0,30.00,NW,324,22.0,36.0,80,0.00,,,0.00,Weather View 32 v70,2013-08-18 12:03:00,
2013-08-18 02:08:00,71.4,65.2,29.99,NNW,332,18.0,36.0,81,0.00,,,0.00,Weather View 32 v70,2013-08-18 12:08:00,
2013-08-18 02:14:00,71.4,65.6,29.99,NW,324,20.0,36.0,82,0.00,,,0.00,Weather View 32 v70,2013-08-18 12:14:00,
2013-08-18 02:19:00,71.3,65.5,29.99,North,9,8.0,36.0,82,0.00,,,0.00,Weather View 32 v70,2013-08-18 12:19:00,
2013-08-18 02:24:00,71.4,64.9,29.99,NW,324,9.0,36.0,80,0.00,,,0.00,Weather View 32 v70,2013-08-18 12:24:00,
2013-08-18 02:29:00,71.8,64.5,29.99,WNW,297,14.0,36.0,78,0.00,,,0.00,Weather View 32 v70,2013-08-18 12:29:00,
2013-08-18 02:34:00,71.9,64.3,29.99,NNW,337,18.0,36.0,77,0.00,,,0.00,Weather View 32 v70,2013-08-18 12:34:00,
2013-08-18 02:39:00,71.6,64.7,29.98,North,350,22.0,36.0,79,0.00,,,0.00,Weather View 32 v70,2013-08-18 12:39:00,
2013-08-18 02:44:00,71.3,64.8,29.98,North,351,12.0,33.0,80,0.00,,,0.00,Weather View 32 v70,2013-08-18 12:44:00,
2013-08-18 02:49:00,71.4,64.9,29.99,NW,313,17.0,34.0,80,0.00,,,0.00,Weather View 32 v70,2013-08-18 12:49:00,
2013-08-18 02:54:00,71.3,64.8,29.98,NW,319,16.0,34.0,80,0.00,,,0.00,Weather View 32 v70,2013-08-18 12:54:00,
2013-08-18 02:59:00,71.6,64.4,29.98,NW,309,16.0,34.0,78,0.00,,,0.00,Weather View 32 v70,2013-08-18 12:59:00,
2013-08-18 03:04:00,71.6,64.0,29.98,NNW,333,19.0,34.0,77,0.00,,,0.00,Weather View 32 v70,2013-08-18 13:04:00,
2013-08-18 03:09:00,71.6,64.4,29.98,WNW,301,27.0,34.0,78,0.00,,,0.00,Weather View 32 v70,2013-08-18 13:09:00,
2013-08-18 03:14:00,71.4,64.9,29.98,North,359,14.0,34.0,80,0.00,,,0.00,Weather View 32 v70,2013-08-18 13:14:00,
2013-08-18 03:19:00,71.3,64.8,29.98,NNW,343,8.0,34.0,80,0.00,,,0.00,Weather View 32 v70,2013-08-18 13:19:00,
2013-08-18 03:24:00,71.2,65.0,29.98,NNW,343,10.0,34.0,81,0.00,,,0.00,Weather View 32 v70,2013-08-18 13:24:00,
2013-08-18 03:29:00,71.1,64.6,29.97,NNW,330,19.0,34.0,80,0.00,,,0.00,Weather View 32 v70,2013-08-18 13:29:00,
2013-08-18 03:34:00,71.4,64.2,29.98,NW,322,24.0,34.0,78,0.00,,,0.00,Weather View 32 v70,2013-08-18 13:34:00,
2013-08-18 03:39:00,71.3,64.1,29.97,North,357,18.0,34.0,78,0.00,,,0.00,Weather View 32 v70,2013-08-18 13:39:00,
2013-08-18 03:44:00,71.4,63.8,29.98,NW,311,16.0,34.0,77,0.00,,,0.00,Weather View 32 v70,2013-08-18 13:44:00,
2013-08-18 03:49:00,71.4,63.8,29.98,NNW,346,12.0,30.0,77,0.00,,,0.00,Weather View 32 v70,2013-08-18 13:49:00,
2013-08-18 03:54:00,71.4,64.2,29.98,NNW,328,14.0,30.0,78,0.00,,,0.00,Weather View 32 v70,2013-08-18 13:54:00,
2013-08-18 03:59:00,71.4,64.2,29.98,North,359,17.0,30.0,78,0.00,,,0.00,Weather View 32 v70,2013-08-18 13:59:00,
2013-08-18 04:04:00,71.5,63.5,29.98,NNW,340,13.0,30.0,76,0.00,,,0.00,Weather View 32 v70,2013-08-18 14:04:00,
2013-08-18 04:09:00,71.6,63.2,29.98,NW,324,4.0,30.0,75,0.00,,,0.00,Weather View 32 v70,2013-08-18 14:09:00,
2013-08-18 04:14:00,71.9,62.7,29.98,NNW,328,8.0,30.0,73,0.00,,,0.00,Weather View 32 v70,2013-08-18 14:14:00,
2013-08-18 04:19:00,72.2,62.6,29.96,North,354,21.0,30.0,72,0.00,,,0.00,Weather View 32 v70,2013-08-18 14:19:00,
2013-08-18 04:24:00,72.2,62.6,29.98,NNW,346,14.0,30.0,72,0.00,,,0.00,Weather View 32 v70,2013-08-18 14:24:00,
2013-08-18 04:29:00,72.0,62.8,29.98,NNW,340,13.0,30.0,73,0.00,,,0.00,Weather View 32 v70,2013-08-18 14:29:00,
2013-08-18 04:34:00,71.8,63.4,29.98,NW,326,11.0,30.0,75,0.00,,,0.00,Weather View 32 v70,2013-08-18 14:34:00,
2013-08-18 04:39:00,71.6,63.2,29.98,NNE,18,8.0,28.0,75,0.00,,,0.00,Weather View 32 v70,2013-08-18 14:39:00,
2013-08-18 04:45:00,71.5,63.5,29.98,North,356,18.0,28.0,76,0.00,,,0.00,Weather View 32 v70,2013-08-18 14:45:00,
2013-08-18 04:50:00,71.3,63.3,29.98,North,10,10.0,28.0,76,0.00,,,0.00,Weather View 32 v70,2013-08-18 14:50:00,
2013-08-18 04:55:00,71.5,63.1,29.97,NNW,341,13.0,29.0,75,0.00,,,0.00,Weather View 32 v70,2013-08-18 14:55:00,
2013-08-18 05:00:00,71.6,62.8,29.98,North,352,18.0,29.0,74,0.00,,,0.00,Weather View 32 v70,2013-08-18 15:00:00,
2013-08-18 05:05:00,71.8,62.6,29.98,NNW,341,8.0,29.0,73,0.00,,,0.00,Weather View 32 v70,2013-08-18 15:05:00,
2013-08-18 05:10:00,71.8,62.6,29.98,NW,308,11.0,29.0,73,0.00,,,0.00,Weather View 32 v70,2013-08-18 15:10:00,
2013-08-18 05:15:00,71.8,62.6,29.98,WNW,293,7.0,29.0,73,0.00,,,0.00,Weather View 32 v70,2013-08-18 15:15:00,
2013-08-18 05:20:00,71.7,63.3,29.98,WNW,289,9.0,29.0,75,0.00,,,0.00,Weather View 32 v70,2013-08-18 15:20:00,
2013-08-18 05:25:00,71.5,63.9,29.98,NNW,332,14.0,29.0,77,0.00,,,0.00,Weather View 32 v70,2013-08-18 15:25:00,
2013-08-18 05:30:00,71.3,63.3,29.98,NNW,335,18.0,29.0,76,0.00,,,0.00,Weather View 32 v70,2013-08-18 15:30:00,
2013-08-18 05:35:00,71.4,63.4,29.98,NNW,341,10.0,29.0,76,0.00,,,0.00,Weather View 32 v70,2013-08-18 15:35:00,
2013-08-18 05:40:00,72.0,63.2,29.98,WNW,297,17.0,29.0,74,0.00,,,0.00,Weather View 32 v70,2013-08-18 15:40:00,
2013-08-18 05:45:00,72.4,63.2,29.97,North,356,19.0,30.0,73,0.00,,,0.00,Weather View 32 v70,2013-08-18 15:45:00,
2013-08-18 05:50:00,72.0,63.2,29.99,NNW,331,22.0,31.0,74,0.00,,,0.00,Weather View 32 v70,2013-08-18 15:50:00,
2013-08-18 05:55:00,71.8,63.8,29.99,NNW,339,25.0,31.0,76,0.00,,,0.00,Weather View 32 v70,2013-08-18 15:55:00,
2013-08-18 06:00:00,71.6,64.4,29.99,NW,324,20.0,31.0,78,0.00,,,0.00,Weather View 32 v70,2013-08-18 16:00:00,
2013-08-18 06:05:00,71.5,65.0,29.99,WSW,251,7.0,31.0,80,0.00,,,0.00,Weather View 32 v70,2013-08-18 16:05:00,
2013-08-18 06:10:00,71.5,65.3,29.99,North,3,12.0,31.0,81,0.00,,,0.00,Weather View 32 v70,2013-08-18 16:10:00,
2013-08-18 06:15:00,71.4,65.2,29.99,NNW,328,11.0,31.0,81,0.00,,,0.00,Weather View 32 v70,2013-08-18 16:15:00,
2013-08-18 06:20:00,71.5,65.0,29.98,NNW,327,21.0,31.0,80,0.00,,,0.00,Weather View 32 v70,2013-08-18 16:20:00,
2013-08-18 06:25:00,71.8,65.3,29.97,North,1,22.0,31.0,80,0.00,,,0.00,Weather View 32 v70,2013-08-18 16:25:00,
2013-08-18 06:30:00,71.6,65.1,29.99,NW,322,14.0,33.0,80,0.00,,,0.00,Weather View 32 v70,2013-08-18 16:30:00,
2013-08-18 06:35:00,71.6,65.4,30.00,NNE,22,8.0,33.0,81,0.00,,,0.00,Weather View 32 v70,2013-08-18 16:35:00,
2013-08-18 06:40:00,71.7,65.2,30.00,NNW,341,20.0,33.0,80,0.00,,,0.00,Weather View 32 v70,2013-08-18 16:40:00,
2013-08-18 06:45:00,71.6,65.4,30.00,North,7,18.0,33.0,81,0.00,,,0.00,Weather View 32 v70,2013-08-18 16:45:00,
2013-08-18 06:50:00,71.5,65.3,30.00,North,4,23.0,33.0,81,0.00,,,0.00,Weather View 32 v70,2013-08-18 16:50:00,
2013-08-18 06:55:00,71.5,65.7,30.00,NNW,339,15.0,33.0,82,0.00,,,0.00,Weather View 32 v70,2013-08-18 16:55:00,
2013-08-18 07:00:00,71.6,65.8,30.01,NNW,341,24.0,33.0,82,0.00,,,0.00,Weather View 32 v70,2013-08-18 17:00:00,
2013-08-18 07:05:00,71.7,65.5,30.01,NW,322,7.0,33.0,81,0.00,,,0.00,Weather View 32 v70,2013-08-18 17:05:00,
2013-08-18 07:10:00,71.8,65.3,30.01,NNE,18,11.0,33.0,80,0.00,,,0.00,Weather View 32 v70,2013-08-18 17:10:00,
2013-08-18 07:15:00,71.9,65.4,30.01,NNW,337,21.0,33.0,80,0.00,,,0.00,Weather View 32 v70,2013-08-18 17:15:00,
2013-08-18 07:20:00,71.8,65.3,30.00,North,356,17.0,33.0,80,0.00,,,0.00,Weather View 32 v70,2013-08-18 17:20:00,
2013-08-18 07:25:00,71.9,65.4,30.02,NNW,337,11.0,33.0,80,0.00,,,0.00,Weather View 32 v70,2013-08-18 17:25:00,
2013-08-18 07:30:00,71.9,66.1,30.02,NNW,335,10.0,31.0,82,0.00,,,0.00,Weather View 32 v70,2013-08-18 17:30:00,
2013-08-18 07:35:00,71.7,66.2,30.00,North,4,22.0,31.0,83,0.00,,,0.00,Weather View 32 v70,2013-08-18 17:35:00,
2013-08-18 07:40:00,71.8,66.7,30.01,North,355,19.0,31.0,84,0.00,,,0.00,Weather View 32 v70,2013-08-18 17:40:00,
2013-08-18 07:46:00,71.9,66.8,30.01,North,353,18.0,28.0,84,0.00,,,0.00,Weather View 32 v70,2013-08-18 17:46:00,
2013-08-18 07:51:00,72.0,66.5,30.01,NNE,29,18.0,30.0,83,0.00,,,0.00,Weather View 32 v70,2013-08-18 17:51:00,
2013-08-18 07:56:00,72.1,67.0,30.00,North,1,24.0,30.0,84,0.00,,,0.00,Weather View 32 v70,2013-08-18 17:56:00,
2013-08-18 08:00:00,72.2,67.1,30.01,NNE,17,22.0,30.0,84,0.00,,,0.00,Weather View 32 v70,2013-08-18 18:00:00,
2013-08-18 08:01:00,72.2,67.1,30.01,NNW,341,14.0,30.0,84,0.00,,,0.00,Weather View 32 v70,2013-08-18 18:01:00,
2013-08-18 08:06:00,72.3,67.2,29.99,North,359,26.0,31.0,84,0.00,,,0.00,Weather View 32 v70,2013-08-18 18:06:00,
2013-08-18 08:11:00,72.4,67.3,29.99,NW,322,20.0,33.0,84,0.00,,,0.00,Weather View 32 v70,2013-08-18 18:11:00,
2013-08-18 08:17:00,72.6,67.5,30.00,NW,309,19.0,33.0,84,0.00,,,0.00,Weather View 32 v70,2013-08-18 18:17:00,
2013-08-18 08:25:00,73.0,67.5,30.01,North,359,22.0,33.0,83,0.00,,,0.00,Weather View 32 v70,2013-08-18 18:25:00,
2013-08-18 08:30:00,72.7,66.9,30.01,North,351,24.0,36.0,82,0.00,,,0.00,Weather View 32 v70,2013-08-18 18:30:00,
2013-08-18 08:35:00,73.0,67.2,30.02,North,5,21.0,36.0,82,0.00,,,0.00,Weather View 32 v70,2013-08-18 18:35:00,
2013-08-18 08:40:00,73.3,66.7,29.99,North,352,12.0,36.0,80,0.00,,,0.00,Weather View 32 v70,2013-08-18 18:40:00,
2013-08-18 08:46:00,73.8,67.6,30.01,NNE,31,29.0,36.0,81,0.00,,,0.00,Weather View 32 v70,2013-08-18 18:46:00,
2013-08-18 08:53:00,73.3,67.8,30.01,NNE,12,17.0,36.0,83,0.00,,,0.00,Weather View 32 v70,2013-08-18 18:53:00,
2013-08-18 09:00:00,73.2,67.4,30.00,North,6,28.0,36.0,82,0.00,,,0.00,Weather View 32 v70,2013-08-18 19:00:00,
2013-08-18 09:05:00,73.2,67.4,30.02,North,3,28.0,36.0,82,0.00,,,0.00,Weather View 32 v70,2013-08-18 19:05:00,
2013-08-18 09:10:00,73.3,67.4,30.00,North,11,27.0,36.0,82,0.00,,,0.00,Weather View 32 v70,2013-08-18 19:10:00,
2013-08-18 09:12:00,73.3,67.1,30.00,North,357,31.0,36.0,81,0.00,,,0.00,Weather View 32 v70,2013-08-18 19:12:00,
2013-08-18 09:15:00,73.7,67.1,30.01,NW,326,21.0,36.0,80,0.00,,,0.00,Weather View 32 v70,2013-08-18 19:15:00,
2013-08-18 09:17:00,73.9,67.3,30.01,North,5,19.0,36.0,80,0.00,,,0.00,Weather View 32 v70,2013-08-18 19:17:00,
2013-08-18 09:23:00,73.9,66.9,30.02,NNW,334,28.0,36.0,79,0.00,,,0.00,Weather View 32 v70,2013-08-18 19:23:00,
2013-08-18 09:29:00,73.8,66.9,30.01,NNE,18,24.0,36.0,79,0.00,,,0.00,Weather View 32 v70,2013-08-18 19:29:00,
2013-08-18 09:35:00,74.3,67.3,30.01,North,359,29.0,35.0,79,0.00,,,0.00,Weather View 32 v70,2013-08-18 19:35:00,
2013-08-18 09:36:00,74.2,67.2,30.00,North,359,30.0,35.0,79,0.00,,,0.00,Weather View 32 v70,2013-08-18 19:36:00,
2013-08-18 09:40:00,73.8,67.6,30.01,NNW,347,29.0,35.0,81,0.00,,,0.00,Weather View 32 v70,2013-08-18 19:40:00,
2013-08-18 09:45:00,74.2,68.0,30.02,North,357,20.0,35.0,81,0.00,,,0.00,Weather View 32 v70,2013-08-18 19:45:00,
2013-08-18 09:48:00,74.3,68.1,30.02,North,350,20.0,35.0,81,0.00,,,0.00,Weather View 32 v70,2013-08-18 19:48:00,
2013-08-18 09:50:00,74.5,68.3,30.01,NNE,14,22.0,35.0,81,0.00,,,0.00,Weather View 32 v70,2013-08-18 19:50:00,
2013-08-18 09:53:00,74.6,67.6,30.01,North,359,18.0,35.0,79,0.00,,,0.00,Weather View 32 v70,2013-08-18 19:53:00,
2013-08-18 09:55:00,74.6,68.0,30.01,NE,34,18.0,35.0,80,0.00,,,0.00,Weather View 32 v70,2013-08-18 19:55:00,
2013-08-18 10:05:00,74.5,67.5,30.00,North,3,33.0,35.0,79,0.00,,,0.00,Weather View 32 v70,2013-08-18 20:05:00,
2013-08-18 10:20:00,74.8,67.8,30.02,NNW,339,19.0,36.0,79,0.00,,,0.00,Weather View 32 v70,2013-08-18 20:20:00,
2013-08-18 10:25:00,74.9,67.9,30.00,NNW,331,26.0,36.0,79,0.00,,,0.00,Weather View 32 v70,2013-08-18 20:25:00,
2013-08-18 10:30:00,74.8,67.5,30.01,North,357,24.0,36.0,78,0.00,,,0.00,Weather View 32 v70,2013-08-18 20:30:00,
2013-08-18 10:36:00,74.8,68.2,30.01,North,3,24.0,36.0,80,0.00,,,0.00,Weather View 32 v70,2013-08-18 20:36:00,
2013-08-18 10:41:00,74.9,68.3,30.00,North,6,26.0,39.0,80,0.00,,,0.00,Weather View 32 v70,2013-08-18 20:41:00,
2013-08-18 10:45:00,75.2,68.2,30.02,NNE,20,28.0,39.0,79,0.00,,,0.00,Weather View 32 v70,2013-08-18 20:45:00,
2013-08-18 10:46:00,75.0,68.0,30.02,NNE,22,23.0,39.0,79,0.00,,,0.00,Weather View 32 v70,2013-08-18 20:46:00,
2013-08-18 10:50:00,74.9,67.5,29.99,North,356,24.0,39.0,78,0.00,,,0.00,Weather View 32 v70,2013-08-18 20:50:00,
2013-08-18 10:52:00,74.9,67.5,30.02,North,5,23.0,39.0,78,0.00,,,0.00,Weather View 32 v70,2013-08-18 20:52:00,
2013-08-18 10:58:00,75.2,67.1,30.02,North,1,32.0,39.0,76,0.00,,,0.00,Weather View 32 v70,2013-08-18 20:58:00,
2013-08-18 11:05:00,75.1,67.0,30.01,North,9,31.0,39.0,76,0.00,,,0.00,Weather View 32 v70,2013-08-18 21:05:00,
2013-08-18 11:10:00,75.3,66.8,30.01,North,3,30.0,39.0,75,0.00,,,0.00,Weather View 32 v70,2013-08-18 21:10:00,
2013-08-18 11:11:00,75.3,66.8,30.01,North,9,24.0,39.0,75,0.00,,,0.00,Weather View 32 v70,2013-08-18 21:11:00,
2013-08-18 11:20:00,75.2,67.1,30.01,North,7,15.0,39.0,76,0.00,,,0.00,Weather View 32 v70,2013-08-18 21:20:00,
2013-08-18 11:25:00,75.5,67.0,30.00,North,355,22.0,39.0,75,0.00,,,0.00,Weather View 32 v70,2013-08-18 21:25:00,
2013-08-18 11:31:00,75.2,66.7,30.01,North,10,22.0,39.0,75,0.00,,,0.00,Weather View 32 v70,2013-08-18 21:31:00,
2013-08-18 11:36:00,75.1,67.0,30.01,NNW,337,15.0,39.0,76,0.00,,,0.00,Weather View 32 v70,2013-08-18 21:36:00,
2013-08-18 11:45:00,75.6,67.9,30.00,NNW,345,31.0,37.0,77,0.00,,,0.00,Weather View 32 v70,2013-08-18 21:45:00,
2013-08-18 11:50:00,75.7,67.6,30.00,NNE,14,26.0,37.0,76,0.00,,,0.00,Weather View 32 v70,2013-08-18 21:50:00,
2013-08-18 11:56:00,75.3,67.6,30.01,NNE,16,31.0,37.0,77,0.00,,,0.00,Weather View 32 v70,2013-08-18 21:56:00,
2013-08-18 12:04:00,75.3,67.6,30.01,NNW,335,25.0,37.0,77,0.00,,,0.00,Weather View 32 v70,2013-08-18 22:04:00,
2013-08-18 12:10:00,75.1,67.7,30.00,NNE,23,21.0,37.0,78,0.00,,,0.00,Weather View 32 v70,2013-08-18 22:10:00,
2013-08-18 12:15:00,75.5,66.6,30.00,North,10,21.0,37.0,74,0.00,,,0.00,Weather View 32 v70,2013-08-18 22:15:00,
2013-08-18 12:16:00,75.3,67.2,30.00,North,4,31.0,37.0,76,0.00,,,0.00,Weather View 32 v70,2013-08-18 22:16:00,
2013-08-18 12:20:00,75.3,67.2,30.00,North,357,23.0,37.0,76,0.00,,,0.00,Weather View 32 v70,2013-08-18 22:20:00,
2013-08-18 12:22:00,75.7,66.8,30.01,North,1,19.0,37.0,74,0.00,,,0.00,Weather View 32 v70,2013-08-18 22:22:00,
2013-08-18 12:28:00,75.8,66.9,30.00,North,350,27.0,37.0,74,0.00,,,0.00,Weather View 32 v70,2013-08-18 22:28:00,
2013-08-18 12:35:00,75.5,66.6,29.98,North,349,27.0,37.0,74,0.00,,,0.00,Weather View 32 v70,2013-08-18 22:35:00,
2013-08-18 12:37:00,75.7,66.4,30.00,NNE,24,15.0,37.0,73,0.00,,,0.00,Weather View 32 v70,2013-08-18 22:37:00,
2013-08-18 12:40:00,75.7,66.4,30.00,North,351,23.0,37.0,73,0.00,,,0.00,Weather View 32 v70,2013-08-18 22:40:00,
2013-08-18 12:42:00,76.1,67.2,29.98,North,351,21.0,37.0,74,0.00,,,0.00,Weather View 32 v70,2013-08-18 22:42:00,
2013-08-18 12:45:00,75.7,66.8,30.00,NE,49,15.0,37.0,74,0.00,,,0.00,Weather View 32 v70,2013-08-18 22:45:00,
2013-08-18 12:49:00,75.9,67.0,29.99,North,4,27.0,37.0,74,0.00,,,0.00,Weather View 32 v70,2013-08-18 22:49:00,
2013-08-18 12:50:00,76.0,67.5,29.99,NNE,17,14.0,37.0,75,0.00,,,0.00,Weather View 32 v70,2013-08-18 22:50:00,
2013-08-18 12:57:00,75.4,66.1,29.98,NNE,20,28.0,38.0,73,0.00,,,0.00,Weather View 32 v70,2013-08-18 22:57:00,
2013-08-18 13:02:00,75.0,66.9,29.98,NNE,32,20.0,38.0,76,0.00,,,0.00,Weather View 32 v70,2013-08-18 23:02:00,
2013-08-18 13:05:00,75.5,67.4,29.98,North,351,29.0,38.0,76,0.00,,,0.00,Weather View 32 v70,2013-08-18 23:05:00,
2013-08-18 13:08:00,76.0,67.9,29.97,North,11,33.0,38.0,76,0.00,,,0.00,Weather View 32 v70,2013-08-18 23:08:00,
2013-08-18 13:10:00,75.6,67.5,29.97,North,350,32.0,38.0,76,0.00,,,0.00,Weather View 32 v70,2013-08-18 23:10:00,
2013-08-18 13:14:00,75.3,67.6,29.98,North,359,24.0,38.0,77,0.00,,,0.00,Weather View 32 v70,2013-08-18 23:14:00,
2013-08-18 13:20:00,75.1,67.0,29.99,North,357,30.0,38.0,76,0.00,,,0.00,Weather View 32 v70,2013-08-18 23:20:00,
2013-08-18 13:25:00,75.1,65.8,29.97,NNW,340,26.0,38.0,73,0.00,,,0.00,Weather View 32 v70,2013-08-18 23:25:00,
2013-08-18 13:31:00,75.3,66.0,29.98,NE,38,16.0,38.0,73,0.00,,,0.00,Weather View 32 v70,2013-08-18 23:31:00,
2013-08-18 13:36:00,75.5,65.8,29.96,NW,326,17.0,38.0,72,0.00,,,0.00,Weather View 32 v70,2013-08-18 23:36:00,
2013-08-18 13:42:00,75.3,64.8,29.97,North,350,21.0,38.0,70,0.00,,,0.00,Weather View 32 v70,2013-08-18 23:42:00,
2013-08-18 13:45:00,75.2,65.1,29.97,NNW,337,29.0,38.0,71,0.00,,,0.00,Weather View 32 v70,2013-08-18 23:45:00,
2013-08-18 13:47:00,75.4,65.3,29.98,NW,313,19.0,38.0,71,0.00,,,0.00,Weather View 32 v70,2013-08-18 23:47:00,
2013-08-18 13:50:00,75.7,65.6,29.98,North,2,14.0,38.0,71,0.00,,,0.00,Weather View 32 v70,2013-08-18 23:50:00,
2013-08-18 13:55:00,75.7,66.0,29.97,North,349,24.0,38.0,72,0.00,,,0.00,Weather View 32 v70,2013-08-18 23:55:00,
2013-08-18 14:01:00,75.5,66.6,29.97,North,349,14.0,38.0,74,0.00,,,0.00,Weather View 32 v70,2013-08-19 00:01:00,
2013-08-18 14:07:00,75.4,66.5,29.97,NNE,17,16.0,38.0,74,0.00,,,0.00,Weather View 32 v70,2013-08-19 00:07:00,
2013-08-18 14:10:00,75.3,66.4,29.97,NW,309,12.0,38.0,74,0.00,,,0.00,Weather View 32 v70,2013-08-19 00:10:00,
2013-08-18 14:13:00,75.5,66.2,29.97,North,358,12.0,38.0,73,0.00,,,0.00,Weather View 32 v70,2013-08-19 00:13:00,
2013-08-18 14:15:00,75.8,66.5,29.97,North,4,15.0,38.0,73,0.00,,,0.00,Weather View 32 v70,2013-08-19 00:15:00,
2013-08-18 14:18:00,75.7,66.4,29.97,NNE,20,10.0,38.0,73,0.00,,,0.00,Weather View 32 v70,2013-08-19 00:18:00,
2013-08-18 14:20:00,75.7,66.4,29.96,North,352,26.0,38.0,73,0.00,,,0.00,Weather View 32 v70,2013-08-19 00:20:00,
2013-08-18 14:25:00,75.8,66.1,29.96,NNE,13,19.0,38.0,72,0.00,,,0.00,Weather View 32 v70,2013-08-19 00:25:00,
2013-08-18 14:31:00,76.0,66.3,29.95,NNW,345,30.0,38.0,72,0.00,,,0.00,Weather View 32 v70,2013-08-19 00:31:00,
2013-08-18 14:35:00,76.1,66.8,29.95,North,357,28.0,38.0,73,0.00,,,0.00,Weather View 32 v70,2013-08-19 00:35:00,
2013-08-18 14:37:00,76.0,66.7,29.95,North,3,24.0,38.0,73,0.00,,,0.00,Weather View 32 v70,2013-08-19 00:37:00,
2013-08-18 14:40:00,76.1,66.8,29.96,NNW,335,19.0,38.0,73,0.00,,,0.00,Weather View 32 v70,2013-08-19 00:40:00,
2013-08-18 14:43:00,76.0,66.3,29.94,NNW,339,29.0,34.0,72,0.00,,,0.00,Weather View 32 v70,2013-08-19 00:43:00,
2013-08-18 14:45:00,75.8,66.1,29.95,North,359,19.0,36.0,72,0.00,,,0.00,Weather View 32 v70,2013-08-19 00:45:00,
2013-08-18 14:49:00,75.6,65.9,29.94,NNE,29,13.0,38.0,72,0.00,,,0.00,Weather View 32 v70,2013-08-19 00:49:00,
2013-08-18 14:55:00,75.6,65.9,29.95,North,4,26.0,38.0,72,0.00,,,0.00,Weather View 32 v70,2013-08-19 00:55:00,
2013-08-18 15:00:00,75.7,66.0,29.96,North,357,29.0,40.0,72,0.00,,,0.00,Weather View 32 v70,2013-08-19 01:00:00,
2013-08-18 15:05:00,76.0,65.5,29.95,NNW,337,27.0,40.0,70,0.00,,,0.00,Weather View 32 v70,2013-08-19 01:05:00,
2013-08-18 15:06:00,76.0,65.5,29.95,North,351,27.0,40.0,70,0.00,,,0.00,Weather View 32 v70,2013-08-19 01:06:00,
2013-08-18 15:10:00,76.0,65.9,29.93,NNW,347,34.0,40.0,71,0.00,,,0.00,Weather View 32 v70,2013-08-19 01:10:00,
2013-08-18 15:12:00,75.9,65.4,29.93,North,9,32.0,40.0,70,0.00,,,0.00,Weather View 32 v70,2013-08-19 01:12:00,
2013-08-18 15:18:00,75.5,65.8,29.94,NNW,337,36.0,40.0,72,0.00,,,0.00,Weather View 32 v70,2013-08-19 01:18:00,
2013-08-18 15:24:00,75.5,65.4,29.94,NNW,333,17.0,40.0,71,0.00,,,0.00,Weather View 32 v70,2013-08-19 01:24:00,
2013-08-18 15:30:00,75.4,64.9,29.93,NNE,22,35.0,42.0,70,0.00,,,0.00,Weather View 32 v70,2013-08-19 01:30:00,
2013-08-18 15:36:00,75.4,64.9,29.96,NNW,341,29.0,42.0,70,0.00,,,0.00,Weather View 32 v70,2013-08-19 01:36:00,
2013-08-18 15:44:00,75.6,64.3,29.92,NNE,19,29.0,42.0,68,0.00,,,0.00,Weather View 32 v70,2013-08-19 01:44:00,
2013-08-18 15:45:00,75.5,64.6,29.92,North,352,31.0,42.0,69,0.00,,,0.00,Weather View 32 v70,2013-08-19 01:45:00,
2013-08-18 15:50:00,75.5,64.2,29.94,North,4,25.0,42.0,68,0.00,,,0.00,Weather View 32 v70,2013-08-19 01:50:00,
2013-08-18 15:55:00,75.3,64.4,29.93,North,2,27.0,42.0,69,0.00,,,0.00,Weather View 32 v70,2013-08-19 01:55:00,
2013-08-18 16:00:00,75.3,64.0,29.93,North,351,24.0,42.0,68,0.00,,,0.00,Weather View 32 v70,2013-08-19 02:00:00,
2013-08-18 16:10:00,75.4,64.5,29.94,NNW,332,33.0,42.0,69,0.00,,,0.00,Weather View 32 v70,2013-08-19 02:10:00,
2013-08-18 16:15:00,75.7,64.3,29.95,NNE,12,32.0,42.0,68,0.00,,,0.00,Weather View 32 v70,2013-08-19 02:15:00,
2013-08-18 16:20:00,75.5,64.6,29.94,East,80,36.0,42.0,69,0.00,,,0.00,Weather View 32 v70,2013-08-19 02:20:00,
2013-08-18 16:25:00,75.3,64.8,29.95,NNW,328,27.0,42.0,70,0.00,,,0.00,Weather View 32 v70,2013-08-19 02:25:00,
2013-08-18 16:33:00,75.5,64.6,29.96,WNW,301,19.0,42.0,69,0.00,,,0.00,Weather View 32 v70,2013-08-19 02:33:00,
2013-08-18 16:35:00,75.6,64.7,29.94,WNW,297,23.0,42.0,69,0.00,,,0.00,Weather View 32 v70,2013-08-19 02:35:00,
2013-08-18 16:38:00,75.2,64.7,29.94,North,355,24.0,42.0,70,0.00,,,0.00,Weather View 32 v70,2013-08-19 02:38:00,
2013-08-18 16:40:00,75.1,65.0,29.95,NNW,333,27.0,42.0,71,0.00,,,0.00,Weather View 32 v70,2013-08-19 02:40:00,
2013-08-18 16:44:00,74.8,65.1,29.95,NW,311,22.0,42.0,72,0.00,,,0.00,Weather View 32 v70,2013-08-19 02:44:00,
2013-08-18 16:45:00,74.8,65.1,29.95,North,355,16.0,42.0,72,0.00,,,0.00,Weather View 32 v70,2013-08-19 02:45:00,
2013-08-18 16:50:00,74.9,64.8,29.94,NNW,329,16.0,42.0,71,0.00,,,0.00,Weather View 32 v70,2013-08-19 02:50:00,
2013-08-18 16:51:00,74.9,64.8,29.95,NE,41,15.0,42.0,71,0.00,,,0.00,Weather View 32 v70,2013-08-19 02:51:00,
2013-08-18 16:55:00,74.8,64.7,29.96,NW,324,22.0,42.0,71,0.00,,,0.00,Weather View 32 v70,2013-08-19 02:55:00,
2013-08-18 16:56:00,74.6,64.9,29.96,NNW,348,21.0,42.0,72,0.00,,,0.00,Weather View 32 v70,2013-08-19 02:56:00,
2013-08-18 17:02:00,74.3,64.7,29.95,East,80,18.0,42.0,72,0.00,,,0.00,Weather View 32 v70,2013-08-19 03:02:00,
2013-08-18 17:07:00,74.3,64.7,29.95,NNW,339,22.0,42.0,72,0.00,,,0.00,Weather View 32 v70,2013-08-19 03:07:00,
2013-08-18 17:12:00,74.3,64.7,29.96,NNE,14,14.0,42.0,72,0.00,,,0.00,Weather View 32 v70,2013-08-19 03:12:00,
2013-08-18 17:17:00,74.1,64.1,29.96,NNW,333,20.0,42.0,71,0.00,,,0.00,Weather View 32 v70,2013-08-19 03:17:00,
2013-08-18 17:22:00,74.1,63.7,29.95,NNW,328,19.0,40.0,70,0.00,,,0.00,Weather View 32 v70,2013-08-19 03:22:00,
2013-08-18 17:27:00,74.0,64.0,29.95,North,5,19.0,40.0,71,0.00,,,0.00,Weather View 32 v70,2013-08-19 03:27:00,
2013-08-18 17:32:00,73.9,63.5,29.95,NW,325,21.0,40.0,70,0.00,,,0.00,Weather View 32 v70,2013-08-19 03:32:00,
2013-08-18 17:37:00,73.8,63.8,29.96,NW,318,19.0,40.0,71,0.00,,,0.00,Weather View 32 v70,2013-08-19 03:37:00,
2013-08-18 17:42:00,73.7,64.5,29.96,NW,326,21.0,40.0,73,0.00,,,0.00,Weather View 32 v70,2013-08-19 03:42:00,
2013-08-18 17:47:00,73.5,64.3,29.95,North,355,19.0,40.0,73,0.00,,,0.00,Weather View 32 v70,2013-08-19 03:47:00,
2013-08-18 17:52:00,73.4,64.6,29.97,North,357,23.0,40.0,74,0.00,,,0.00,Weather View 32 v70,2013-08-19 03:52:00,
2013-08-18 17:57:00,73.3,64.5,29.96,WNW,303,10.0,39.0,74,0.00,,,0.00,Weather View 32 v70,2013-08-19 03:57:00,
2013-08-18 18:01:00,73.3,64.5,29.96,NNW,341,20.0,39.0,74,0.00,,,0.00,Weather View 32 v70,2013-08-19 04:01:00,
2013-08-18 18:06:00,73.2,65.2,29.96,NNE,21,18.0,43.0,76,0.00,,,0.00,Weather View 32 v70,2013-08-19 04:06:00,
2013-08-18 18:11:00,73.1,65.1,29.97,NW,322,14.0,43.0,76,0.00,,,0.00,Weather View 32 v70,2013-08-19 04:11:00,
2013-08-18 18:16:00,73.1,65.1,29.96,NW,321,17.0,43.0,76,0.00,,,0.00,Weather View 32 v70,2013-08-19 04:16:00,
2013-08-18 18:21:00,73.1,65.4,29.96,NNW,339,24.0,43.0,77,0.00,,,0.00,Weather View 32 v70,2013-08-19 04:21:00,
2013-08-18 18:26:00,73.0,65.7,29.97,North,349,23.0,43.0,78,0.00,,,0.00,Weather View 32 v70,2013-08-19 04:26:00,
2013-08-18 18:31:00,72.9,66.0,29.96,North,349,27.0,43.0,79,0.00,,,0.00,Weather View 32 v70,2013-08-19 04:31:00,
2013-08-18 18:36:00,72.8,66.2,29.98,NNW,341,29.0,43.0,80,0.00,,,0.00,Weather View 32 v70,2013-08-19 04:36:00,
2013-08-18 18:41:00,72.7,65.8,29.96,North,9,15.0,43.0,79,0.00,,,0.00,Weather View 32 v70,2013-08-19 04:41:00,
2013-08-18 18:46:00,72.7,65.8,29.98,NNW,330,16.0,43.0,79,0.00,,,0.00,Weather View 32 v70,2013-08-19 04:46:00,
2013-08-18 18:51:00,72.7,65.4,29.97,North,360,25.0,43.0,78,0.00,,,0.00,Weather View 32 v70,2013-08-19 04:51:00,
2013-08-18 18:56:00,72.7,65.8,29.98,North,359,12.0,43.0,79,0.00,,,0.00,Weather View 32 v70,2013-08-19 04:56:00,
2013-08-18 19:01:00,72.7,65.8,29.98,NNW,339,30.0,43.0,79,0.00,,,0.00,Weather View 32 v70,2013-08-19 05:01:00,
2013-08-18 19:06:00,72.7,65.4,29.97,NNW,344,27.0,41.0,78,0.00,,,0.00,Weather View 32 v70,2013-08-19 05:06:00,
2013-08-18 19:11:00,72.6,65.3,29.99,NNW,332,22.0,41.0,78,0.00,,,0.00,Weather View 32 v70,2013-08-19 05:11:00,
2013-08-18 19:16:00,72.6,65.3,30.00,NNW,332,20.0,41.0,78,0.00,,,0.00,Weather View 32 v70,2013-08-19 05:16:00,
2013-08-18 19:21:00,72.5,65.2,30.00,NNW,341,17.0,41.0,78,0.00,,,0.00,Weather View 32 v70,2013-08-19 05:21:00,
2013-08-18 19:26:00,72.6,65.3,30.00,North,7,23.0,41.0,78,0.00,,,0.00,Weather View 32 v70,2013-08-19 05:26:00,
2013-08-18 19:31:00,72.6,65.3,30.00,NNW,336,16.0,37.0,78,0.00,,,0.00,Weather View 32 v70,2013-08-19 05:31:00,
2013-08-18 19:36:00,72.6,65.3,30.00,NW,323,11.0,37.0,78,0.00,,,0.00,Weather View 32 v70,2013-08-19 05:36:00,
2013-08-18 19:41:00,72.5,65.2,30.00,NW,318,17.0,37.0,78,0.00,,,0.00,Weather View 32 v70,2013-08-19 05:41:00,
2013-08-18 19:46:00,72.6,65.3,30.00,NNW,345,22.0,37.0,78,0.00,,,0.00,Weather View 32 v70,2013-08-19 05:46:00,
2013-08-18 19:51:00,72.6,65.3,30.00,North,355,13.0,37.0,78,0.00,,,0.00,Weather View 32 v70,2013-08-19 05:51:00,
2013-08-18 19:56:00,72.7,65.4,30.00,NNW,334,16.0,37.0,78,0.00,,,0.00,Weather View 32 v70,2013-08-19 05:56:00,
2013-08-18 20:01:00,72.7,65.8,30.00,North,358,24.0,37.0,79,0.00,,,0.00,Weather View 32 v70,2013-08-19 06:01:00,
2013-08-18 20:06:00,72.7,65.8,30.00,North,5,18.0,35.0,79,0.00,,,0.00,Weather View 32 v70,2013-08-19 06:06:00,
2013-08-18 20:11:00,72.7,65.8,30.00,North,350,19.0,35.0,79,0.00,,,0.00,Weather View 32 v70,2013-08-19 06:11:00,
2013-08-18 20:16:00,72.6,65.7,30.00,North,351,25.0,35.0,79,0.00,,,0.00,Weather View 32 v70,2013-08-19 06:16:00,
2013-08-18 20:21:00,72.7,65.8,29.98,North,8,21.0,37.0,79,0.00,,,0.00,Weather View 32 v70,2013-08-19 06:21:00,
2013-08-18 20:26:00,72.6,65.7,30.01,NW,325,16.0,37.0,79,0.00,,,0.00,Weather View 32 v70,2013-08-19 06:26:00,
2013-08-18 20:31:00,72.6,65.7,30.00,North,3,17.0,37.0,79,0.00,,,0.00,Weather View 32 v70,2013-08-19 06:31:00,
2013-08-18 20:36:00,72.6,65.7,30.01,North,7,18.0,37.0,79,0.00,,,0.00,Weather View 32 v70,2013-08-19 06:36:00,
2013-08-18 20:41:00,72.6,65.7,30.00,NNW,348,26.0,37.0,79,0.00,,,0.00,Weather View 32 v70,2013-08-19 06:41:00,
2013-08-18 20:46:00,72.6,65.7,29.99,North,355,20.0,37.0,79,0.00,,,0.00,Weather View 32 v70,2013-08-19 06:46:00,
2013-08-18 20:51:00,72.6,66.1,30.00,North,358,22.0,37.0,80,0.00,,,0.00,Weather View 32 v70,2013-08-19 06:51:00,
2013-08-18 20:56:00,72.6,66.1,30.00,North,359,25.0,37.0,80,0.00,,,0.00,Weather View 32 v70,2013-08-19 06:56:00,
2013-08-18 21:01:00,72.6,66.1,29.98,North,352,28.0,37.0,80,0.00,,,0.00,Weather View 32 v70,2013-08-19 07:01:00,
2013-08-18 21:06:00,72.6,65.7,30.00,NNW,347,21.0,37.0,79,0.00,,,0.00,Weather View 32 v70,2013-08-19 07:06:00,
2013-08-18 21:11:00,72.6,65.7,30.01,North,354,30.0,39.0,79,0.00,,,0.00,Weather View 32 v70,2013-08-19 07:11:00,
2013-08-18 21:16:00,72.6,65.7,30.00,NNW,328,18.0,39.0,79,0.00,,,0.00,Weather View 32 v70,2013-08-19 07:16:00,
2013-08-18 21:21:00,73.0,65.3,30.01,North,8,26.0,39.0,77,0.00,,,0.00,Weather View 32 v70,2013-08-19 07:21:00,
2013-08-18 21:26:00,73.0,65.0,30.02,NW,323,28.0,39.0,76,0.00,,,0.00,Weather View 32 v70,2013-08-19 07:26:00,
2013-08-18 21:31:00,73.4,64.6,30.01,North,353,27.0,39.0,74,0.00,,,0.00,Weather View 32 v70,2013-08-19 07:31:00,
2013-08-18 21:36:00,73.5,65.1,30.02,North,353,13.0,39.0,75,0.00,,,0.00,Weather View 32 v70,2013-08-19 07:36:00,
2013-08-18 21:41:00,74.3,63.8,29.99,NNW,336,29.0,40.0,70,0.00,,,0.00,Weather View 32 v70,2013-08-19 07:41:00,
2013-08-18 21:46:00,74.3,64.3,30.02,WNW,303,15.0,40.0,71,0.00,,,0.00,Weather View 32 v70,2013-08-19 07:46:00,
2013-08-18 21:51:00,74.0,64.0,30.02,NNW,348,19.0,40.0,71,0.00,,,0.00,Weather View 32 v70,2013-08-19 07:51:00,
2013-08-18 21:56:00,73.3,65.2,30.02,North,350,22.0,40.0,76,0.00,,,0.00,Weather View 32 v70,2013-08-19 07:56:00,
2013-08-18 22:01:00,72.8,65.9,30.02,NNW,332,15.0,40.0,79,0.00,,,0.00,Weather View 32 v70,2013-08-19 08:01:00,
2013-08-18 22:06:00,72.6,66.1,30.02,NNW,347,25.0,40.0,80,0.00,,,0.00,Weather View 32 v70,2013-08-19 08:06:00,
2013-08-18 22:11:00,72.6,65.7,30.03,NW,311,15.0,40.0,79,0.00,,,0.00,Weather View 32 v70,2013-08-19 08:11:00,
2013-08-18 22:16:00,72.8,65.5,30.03,NW,306,15.0,40.0,78,0.00,,,0.00,Weather View 32 v70,2013-08-19 08:16:00,
2013-08-18 22:21:00,72.7,65.8,30.04,North,354,22.0,40.0,79,0.00,,,0.00,Weather View 32 v70,2013-08-19 08:21:00,
2013-08-18 22:26:00,72.6,65.7,30.03,NNW,334,16.0,40.0,79,0.00,,,0.00,Weather View 32 v70,2013-08-19 08:26:00,
2013-08-18 22:31:00,72.5,65.6,30.04,NNW,334,18.0,40.0,79,0.00,,,0.00,Weather View 32 v70,2013-08-19 08:31:00,
2013-08-18 22:36:00,72.4,65.9,30.03,North,360,25.0,40.0,80,0.00,,,0.00,Weather View 32 v70,2013-08-19 08:36:00,
2013-08-18 22:41:00,72.5,66.0,30.03,North,357,27.0,38.0,80,0.00,,,0.00,Weather View 32 v70,2013-08-19 08:41:00,
2013-08-18 22:46:00,72.5,66.0,30.03,NNW,332,20.0,35.0,80,0.00,,,0.00,Weather View 32 v70,2013-08-19 08:46:00,
2013-08-18 22:52:00,72.5,66.0,30.04,North,358,19.0,35.0,80,0.00,,,0.00,Weather View 32 v70,2013-08-19 08:52:00,
2013-08-18 22:57:00,72.5,66.0,30.03,North,356,16.0,35.0,80,0.00,,,0.00,Weather View 32 v70,2013-08-19 08:57:00,
2013-08-18 23:02:00,72.4,66.2,30.03,North,4,16.0,34.0,81,0.00,,,0.00,Weather View 32 v70,2013-08-19 09:02:00,
2013-08-18 23:07:00,72.3,65.8,30.03,North,8,18.0,34.0,80,0.00,,,0.00,Weather View 32 v70,2013-08-19 09:07:00,
2013-08-18 23:12:00,72.5,66.0,30.03,North,360,21.0,34.0,80,0.00,,,0.00,Weather View 32 v70,2013-08-19 09:12:00,
2013-08-18 23:17:00,72.4,66.2,30.03,North,6,17.0,34.0,81,0.00,,,0.00,Weather View 32 v70,2013-08-19 09:17:00,
2013-08-18 23:22:00,72.2,66.4,30.03,North,6,17.0,34.0,82,0.00,,,0.00,Weather View 32 v70,2013-08-19 09:22:00,
2013-08-18 23:27:00,72.2,66.4,30.02,North,351,35.0,35.0,82,0.00,,,0.00,Weather View 32 v70,2013-08-19 09:27:00,
2013-08-18 23:32:00,72.1,66.6,30.03,NNW,341,23.0,35.0,83,0.00,,,0.00,Weather View 32 v70,2013-08-19 09:32:00,
2013-08-18 23:37:00,72.1,66.6,30.01,North,353,23.0,35.0,83,0.00,,,0.00,Weather View 32 v70,2013-08-19 09:37:00,
2013-08-18 23:42:00,72.0,66.5,30.03,NNW,334,14.0,35.0,83,0.00,,,0.00,Weather View 32 v70,2013-08-19 09:42:00,
2013-08-18 23:47:00,71.9,66.4,30.01,North,358,21.0,35.0,83,0.00,,,0.00,Weather View 32 v70,2013-08-19 09:47:00,
2013-08-18 23:52:00,71.9,66.4,30.01,NNE,26,19.0,35.0,83,0.00,,,0.00,Weather View 32 v70,2013-08-19 09:52:00,
2013-08-18 23:57:00,71.8,66.3,30.01,NNE,25,18.0,35.0,83,0.00,,,0.00,Weather View 32 v70,2013-08-19 09:57:00,